Flag for Portugal Weather past 2 weeks in Guimarães, Portugal

Now
52 °F

Cool.


Feels Like: 52 °F
Forecast: 47 / 61 °F
Wind: 2 mph from East

Location: Porto / Pedras Rubras

Current Time: Apr 21, 2015 at 3:40:45 AM

Latest Report: Apr 21, 2015 at 2:00 AM


Visibility: N/A

Pressure: 30.07 "Hg

Humidity: 85%

Dew point: 47 °F

Location of GuimarãesLocation

Historic Weather in Guimarães — Graph

°F

Guimarães temperature yesterday

Maximum temperature yesterday: 63 °F (at 2:00 PM)
Minimum temperature yesterday: 48 °F (at 4:00 AM)
Average temperature yesterday: 55 °F

Past Weeks' High & Low Weather Summary

 TemperatureHumidityPressure
High80 °F (Apr 13, 3:00 PM)92% (Apr 16, 1:00 AM)30.32 "Hg (Apr 16, 1:00 AM)
Low47 °F (Apr 19, 7:00 AM)23% (Apr 13, 3:00 PM)29.85 "Hg (Apr 6, 3:00 AM)
Average59 °F66%30.10 "Hg
* Reported Apr 6 2:00 AM — Apr 21 2:00 AM, Guimarães, Weather by CustomWeather, © 2015

Note: Actual official high and low records may vary slightly from our data, if they occured in-between our weather recording intervals... More about our weather records

Advertising

Guimarães weather history for previous 24 hours

 ConditionsComfort  
Time TempWeatherWind HumidityBarometerVisibility
2:00 AM
Tue, Apr 21
52 °FCool.2 mph85%30.07 "HgN/A
1:00 AM53 °FCool.No wind84%30.08 "HgN/A
12:00 AM54 °FCool.1 mph84%30.09 "HgN/A
11:00 PM
Mon, Apr 20
54 °FCool.1 mph81%30.09 "HgN/A
10:00 PM55 °FCool.2 mph79%30.09 "HgN/A
9:00 PM56 °FCool.2 mph77%30.09 "HgN/A
8:00 PM56 °FCool.3 mph73%30.07 "HgN/A
7:00 PM58 °FCool.6 mph68%30.08 "HgN/A
6:00 PM60 °FCool.7 mph65%30.08 "HgN/A
5:00 PM61 °FRefreshingly cool.7 mph59%30.08 "HgN/A
4:00 PM62 °FRefreshingly cool.6 mph60%30.09 "HgN/A
3:00 PM62 °FRefreshingly cool.6 mph54%30.11 "HgN/A
2:00 PM63 °FMild.5 mph53%30.12 "HgN/A
1:00 PM63 °FMild.3 mph53%30.14 "HgN/A
12:00 PM61 °FCool.3 mph62%30.15 "HgN/A
11:00 AM62 °FRefreshingly cool.2 mph60%30.14 "HgN/A
10:00 AM60 °FCool.1 mph61%30.14 "HgN/A
9:00 AM55 °FCool.5 mph74%30.14 "HgN/A
8:00 AM51 °FCool.3 mph81%30.14 "HgN/A
7:00 AM49 °FCool.3 mph84%30.13 "HgN/A
6:00 AM49 °FCool.3 mph85%30.11 "HgN/A
5:00 AM49 °FCool.2 mph86%30.12 "HgN/A
4:00 AM48 °FCool.2 mph86%30.11 "HgN/A
3:00 AM48 °FCool.2 mph85%30.12 "HgN/A
Weather by CustomWeather, © 2015

See weather overviewHow to use our weather pages